LEST

Santiago de Compostela

Airport
ICAO code
LEST
Summary
ICAO Region
EUR
ICAO Territory
Location

Lavacolla,

Coordinates
42° 53' 51" N , 8° 25' 14" W
KCC
Metar
Observation
LEST 091830Z 02009KT 340V060 9999 FEW010 BKN019 08/06 Q1004 NOSIG
Station
Santiago / Labacolla
Date/Time
2022-12-09 18:30:00
Wind direction
20°
Wind speed
09 kts
Lowest cloud amount
few clouds
Temperature
8°C
Dew point
6°C
Humidity
87%
QNH
1004 hPa
Weather condition
n/a

Description

Santiago de Compostela Airport is one of the three international airports in Galicia, Spain. It is located in Lavacolla, a town 16 km from Galicia's capital city, Santiago de Compostela.

Climatology

Dry-summer subtropical ”Mediterranean" climate (Köppen climate classification Csa) - characterized by hot, dry summers and mild winters. During the summer, subtropical high pressure cells dominate, making rainfall unlikely except for the occasional thunderstorm. In the winter, periodic storms bring rain (snow at higher elevations).

Runways

Designator Length Width Surface Rops
17/35 3200 45 ASP Yes/Yes

SKYbrary Partners:

Safety knowledge contributed by: